Time,TemperatureF,DewpointF,PressureIn,WindDirection,WindDirectionDegrees,WindSpeedMPH,WindSpeedGustMPH,Humidity,HourlyPrecipIn,Conditions,Clouds,dailyrainin,SoftwareType,DateUTC
2017-04-27 00:03:00,58.4,57.0,28.69,NW,315,0.0,-999.0,96,0.00,,,0.00,,2017-04-27 04:03:00,
2017-04-27 00:08:00,58.4,57.0,28.69,NNW,338,0.0,-999.0,96,0.00,,,0.00,,2017-04-27 04:08:00,
2017-04-27 00:14:00,58.4,57.0,28.70,NW,315,0.0,-999.0,96,0.00,,,0.00,,2017-04-27 04:14:00,
2017-04-27 00:19:00,58.4,57.0,28.70,NW,315,0.0,-999.0,96,0.00,,,0.00,,2017-04-27 04:19:00,
2017-04-27 00:24:00,58.4,57.0,28.70,WNW,293,0.0,-999.0,96,0.00,,,0.00,,2017-04-27 04:24:00,
2017-04-27 00:29:00,58.4,57.0,28.70,NNW,338,0.0,-999.0,96,0.00,,,0.00,,2017-04-27 04:29:00,
2017-04-27 00:35:00,58.4,57.0,28.70,West,270,0.0,-999.0,96,0.00,,,0.00,,2017-04-27 04:35:00,
2017-04-27 00:40:00,58.5,58.0,28.71,North,0,0.0,-999.0,98,0.00,,,0.00,,2017-04-27 04:40:00,
2017-04-27 00:46:00,58.8,58.0,28.71,NNW,338,0.0,-999.0,98,0.00,,,0.00,,2017-04-27 04:46:00,
2017-04-27 00:51:00,59.0,58.0,28.70,NNW,338,0.0,-999.0,98,0.00,,,0.00,,2017-04-27 04:51:00,
2017-04-27 00:57:00,59.4,59.0,28.71,West,270,1.0,-999.0,98,0.00,,,0.00,,2017-04-27 04:57:00,
2017-04-27 01:02:00,59.7,59.0,28.73,NW,315,0.0,-999.0,98,0.00,,,0.00,,2017-04-27 05:02:00,
2017-04-27 01:08:00,60.0,59.0,28.73,ESE,113,0.0,-999.0,98,0.02,,,0.02,,2017-04-27 05:08:00,
2017-04-27 01:13:00,60.0,59.0,28.71,South,180,0.0,-999.0,98,0.04,,,0.04,,2017-04-27 05:13:00,
2017-04-27 01:19:00,60.0,59.0,28.71,SE,135,6.0,-999.0,98,0.05,,,0.05,,2017-04-27 05:19:00,
2017-04-27 01:24:00,60.0,59.0,28.66,SSW,203,6.0,-999.0,98,0.07,,,0.07,,2017-04-27 05:24:00,
2017-04-27 01:29:00,59.9,59.0,28.70,NNW,338,3.0,-999.0,98,0.07,,,0.07,,2017-04-27 05:29:00,
2017-04-27 01:35:00,59.7,59.0,28.69,West,270,2.0,-999.0,98,0.07,,,0.07,,2017-04-27 05:35:00,
2017-04-27 01:40:00,59.7,59.0,28.71,SSW,203,0.0,-999.0,98,0.08,,,0.08,,2017-04-27 05:40:00,
2017-04-27 01:46:00,59.7,59.0,28.71,SSW,203,0.0,-999.0,98,0.08,,,0.08,,2017-04-27 05:46:00,
2017-04-27 01:51:00,59.7,59.0,28.70,SSE,158,0.0,-999.0,98,0.08,,,0.08,,2017-04-27 05:51:00,
2017-04-27 01:56:00,59.4,59.0,28.70,SSW,203,0.0,-999.0,98,0.08,,,0.08,,2017-04-27 05:56:00,
2017-04-27 02:02:00,59.4,59.0,28.69,ESE,113,0.0,-999.0,98,0.00,,,0.08,,2017-04-27 06:02:00,
2017-04-27 02:07:00,59.3,59.0,28.68,SSE,158,0.0,-999.0,98,0.00,,,0.08,,2017-04-27 06:07:00,
2017-04-27 02:13:00,59.3,59.0,28.68,West,270,0.0,-999.0,98,0.00,,,0.08,,2017-04-27 06:13:00,
2017-04-27 02:18:00,59.3,59.0,28.67,South,180,0.0,-999.0,98,0.00,,,0.08,,2017-04-27 06:18:00,
2017-04-27 02:23:00,59.3,59.0,28.67,WSW,248,0.0,-999.0,98,0.00,,,0.08,,2017-04-27 06:23:00,
2017-04-27 02:29:00,59.3,59.0,28.67,NNW,338,0.0,-999.0,98,0.00,,,0.08,,2017-04-27 06:29:00,
2017-04-27 02:34:00,59.3,59.0,28.66,NNW,338,0.0,-999.0,98,0.00,,,0.08,,2017-04-27 06:34:00,
2017-04-27 02:40:00,59.3,59.0,28.67,NNE,23,0.0,-999.0,98,0.00,,,0.08,,2017-04-27 06:40:00,
2017-04-27 02:45:00,59.4,59.0,28.69,NW,315,4.0,-999.0,98,0.01,,,0.09,,2017-04-27 06:45:00,
2017-04-27 02:50:00,59.4,59.0,28.68,NW,315,0.0,-999.0,98,0.02,,,0.10,,2017-04-27 06:50:00,
2017-04-27 02:56:00,59.4,59.0,28.68,NNW,338,0.0,-999.0,98,0.02,,,0.10,,2017-04-27 06:56:00,
2017-04-27 03:01:00,59.3,59.0,28.69,NW,315,0.0,-999.0,98,0.00,,,0.10,,2017-04-27 07:01:00,
2017-04-27 03:07:00,59.2,58.0,28.67,NNE,23,0.0,-999.0,98,0.00,,,0.10,,2017-04-27 07:07:00,
2017-04-27 03:12:00,59.2,58.0,28.66,North,0,0.0,-999.0,98,0.00,,,0.10,,2017-04-27 07:12:00,
2017-04-27 03:17:00,59.2,58.0,28.65,WNW,293,0.0,-999.0,98,0.00,,,0.10,,2017-04-27 07:17:00,
2017-04-27 03:23:00,59.2,58.0,28.64,South,180,0.0,-999.0,98,0.00,,,0.10,,2017-04-27 07:23:00,
2017-04-27 03:28:00,59.2,58.0,28.64,SSE,158,3.0,-999.0,98,0.00,,,0.10,,2017-04-27 07:28:00,
2017-04-27 03:34:00,59.0,58.0,28.64,South,180,0.0,-999.0,98,0.00,,,0.10,,2017-04-27 07:34:00,
2017-04-27 03:39:00,58.8,58.0,28.64,South,180,0.0,-999.0,98,0.00,,,0.10,,2017-04-27 07:39:00,
2017-04-27 03:44:00,58.4,58.0,28.64,SSE,158,0.0,-999.0,98,0.00,,,0.10,,2017-04-27 07:44:00,
2017-04-27 03:50:00,58.4,58.0,28.64,SE,135,1.0,-999.0,98,0.00,,,0.10,,2017-04-27 07:50:00,
2017-04-27 03:55:00,58.4,58.0,28.63,SSE,158,0.0,-999.0,98,0.00,,,0.10,,2017-04-27 07:55:00,
2017-04-27 04:01:00,58.2,58.0,28.63,SSW,203,0.0,-999.0,98,0.00,,,0.10,,2017-04-27 08:01:00,
2017-04-27 04:06:00,58.0,57.0,28.63,SSE,158,0.0,-999.0,98,0.00,,,0.10,,2017-04-27 08:06:00,
2017-04-27 04:11:00,57.8,57.0,28.63,SW,225,0.0,-999.0,98,0.00,,,0.10,,2017-04-27 08:11:00,
2017-04-27 04:17:00,57.8,57.0,28.63,West,270,0.0,-999.0,98,0.00,,,0.10,,2017-04-27 08:17:00,
2017-04-27 04:22:00,57.8,57.0,28.64,West,270,0.0,-999.0,98,0.00,,,0.10,,2017-04-27 08:22:00,
2017-04-27 04:28:00,57.8,57.0,28.63,South,180,1.0,-999.0,98,0.00,,,0.10,,2017-04-27 08:28:00,
2017-04-27 04:33:00,58.2,58.0,28.62,SE,135,0.0,-999.0,98,0.00,,,0.10,,2017-04-27 08:33:00,
2017-04-27 04:38:00,58.2,58.0,28.62,SSW,203,0.0,-999.0,98,0.00,,,0.10,,2017-04-27 08:38:00,
2017-04-27 04:44:00,58.0,57.0,28.62,NW,315,0.0,-999.0,98,0.00,,,0.10,,2017-04-27 08:44:00,
2017-04-27 04:49:00,58.0,57.0,28.62,SW,225,0.0,-999.0,98,0.00,,,0.10,,2017-04-27 08:49:00,
2017-04-27 04:55:00,58.2,58.0,28.62,North,0,0.0,-999.0,98,0.00,,,0.10,,2017-04-27 08:55:00,
2017-04-27 05:00:00,58.2,58.0,28.62,WNW,293,0.0,-999.0,98,0.00,,,0.10,,2017-04-27 09:00:00,
2017-04-27 05:05:00,58.2,58.0,28.63,West,270,0.0,-999.0,98,0.00,,,0.10,,2017-04-27 09:05:00,
2017-04-27 05:11:00,58.4,58.0,28.63,NNE,23,0.0,-999.0,98,0.00,,,0.10,,2017-04-27 09:11:00,
2017-04-27 05:16:00,58.4,58.0,28.62,NW,315,0.0,-999.0,98,0.00,,,0.10,,2017-04-27 09:16:00,
2017-04-27 05:22:00,58.5,58.0,28.62,West,270,0.0,-999.0,98,0.00,,,0.10,,2017-04-27 09:22:00,
2017-04-27 05:27:00,58.5,58.0,28.62,NNW,338,0.0,-999.0,98,0.00,,,0.10,,2017-04-27 09:27:00,
2017-04-27 05:32:00,58.5,58.0,28.61,South,180,0.0,-999.0,98,0.00,,,0.10,,2017-04-27 09:32:00,
2017-04-27 05:38:00,58.5,58.0,28.62,SW,225,0.0,-999.0,98,0.00,,,0.10,,2017-04-27 09:38:00,
2017-04-27 05:43:00,58.5,58.0,28.61,WNW,293,0.0,-999.0,98,0.00,,,0.10,,2017-04-27 09:43:00,
2017-04-27 05:49:00,58.5,58.0,28.61,WNW,293,0.0,-999.0,98,0.00,,,0.10,,2017-04-27 09:49:00,
2017-04-27 05:55:00,58.8,58.0,28.61,WSW,248,0.0,-999.0,98,0.00,,,0.10,,2017-04-27 09:55:00,
2017-04-27 06:00:00,59.0,58.0,28.61,NNE,23,0.0,-999.0,98,0.00,,,0.10,,2017-04-27 10:00:00,
2017-04-27 06:05:00,59.0,58.0,28.61,North,0,0.0,-999.0,98,0.00,,,0.10,,2017-04-27 10:05:00,
2017-04-27 06:11:00,59.2,58.0,28.62,West,270,0.0,-999.0,98,0.00,,,0.10,,2017-04-27 10:11:00,
2017-04-27 06:16:00,59.2,58.0,28.62,NNW,338,2.0,-999.0,98,0.00,,,0.10,,2017-04-27 10:16:00,
2017-04-27 06:22:00,59.2,58.0,28.63,North,0,2.0,-999.0,98,0.00,,,0.10,,2017-04-27 10:22:00,
2017-04-27 06:27:00,59.3,59.0,28.63,SW,225,2.0,-999.0,98,0.00,,,0.10,,2017-04-27 10:27:00,
2017-04-27 06:32:00,59.3,59.0,28.62,NE,45,0.0,-999.0,98,0.00,,,0.10,,2017-04-27 10:32:00,
2017-04-27 06:38:00,59.3,59.0,28.62,WSW,248,5.0,-999.0,98,0.00,,,0.10,,2017-04-27 10:38:00,
2017-04-27 06:43:00,59.3,59.0,28.63,SW,225,0.0,-999.0,98,0.00,,,0.10,,2017-04-27 10:43:00,
2017-04-27 06:49:00,59.3,59.0,28.63,SSE,158,4.0,-999.0,98,0.00,,,0.10,,2017-04-27 10:49:00,
2017-04-27 06:54:00,59.3,59.0,28.63,South,180,1.0,-999.0,98,0.00,,,0.10,,2017-04-27 10:54:00,
2017-04-27 06:59:00,59.3,59.0,28.63,NW,315,0.0,-999.0,98,0.00,,,0.10,,2017-04-27 10:59:00,
2017-04-27 07:05:00,59.3,59.0,28.60,SSE,158,1.0,-999.0,98,0.00,,,0.10,,2017-04-27 11:05:00,
2017-04-27 07:10:00,59.3,59.0,28.61,ESE,113,2.0,-999.0,98,0.00,,,0.10,,2017-04-27 11:10:00,
2017-04-27 07:16:00,59.3,59.0,28.61,SW,225,1.0,-999.0,98,0.00,,,0.10,,2017-04-27 11:16:00,
2017-04-27 07:21:00,59.3,59.0,28.61,NW,315,1.0,-999.0,98,0.00,,,0.10,,2017-04-27 11:21:00,
2017-04-27 07:26:00,59.3,59.0,28.61,West,270,0.0,-999.0,98,0.00,,,0.10,,2017-04-27 11:26:00,
2017-04-27 07:32:00,59.4,59.0,28.62,North,0,0.0,-999.0,98,0.00,,,0.10,,2017-04-27 11:32:00,
2017-04-27 07:37:00,59.4,59.0,28.61,SSE,158,5.0,-999.0,98,0.00,,,0.10,,2017-04-27 11:37:00,
2017-04-27 07:43:00,59.7,59.0,28.62,ESE,113,3.0,-999.0,98,0.00,,,0.10,,2017-04-27 11:43:00,
2017-04-27 07:48:00,59.7,59.0,28.62,SW,225,0.0,-999.0,98,0.00,,,0.10,,2017-04-27 11:48:00,
2017-04-27 07:53:00,59.9,59.0,28.62,NW,315,3.0,-999.0,98,0.01,,,0.11,,2017-04-27 11:53:00,
2017-04-27 07:59:00,60.0,59.0,28.62,South,180,2.0,-999.0,98,0.01,,,0.11,,2017-04-27 11:59:00,
2017-04-27 08:04:00,60.7,60.0,28.62,SE,135,5.0,-999.0,98,0.00,,,0.11,,2017-04-27 12:04:00,
2017-04-27 08:10:00,60.7,60.0,28.62,North,0,1.0,-999.0,98,0.00,,,0.11,,2017-04-27 12:10:00,
2017-04-27 08:15:00,60.7,60.0,28.62,SSW,203,4.0,-999.0,98,0.00,,,0.11,,2017-04-27 12:15:00,
2017-04-27 08:20:00,61.3,61.0,28.61,ENE,68,1.0,-999.0,98,0.00,,,0.11,,2017-04-27 12:20:00,
2017-04-27 08:26:00,61.9,61.0,28.62,WNW,293,6.0,-999.0,98,0.00,,,0.11,,2017-04-27 12:26:00,
2017-04-27 08:31:00,62.2,61.0,28.61,West,270,2.0,-999.0,98,0.00,,,0.11,,2017-04-27 12:31:00,
2017-04-27 08:37:00,62.1,61.0,28.62,West,270,8.0,-999.0,98,0.00,,,0.11,,2017-04-27 12:37:00,
2017-04-27 08:42:00,62.2,61.0,28.62,North,0,3.0,-999.0,98,0.00,,,0.11,,2017-04-27 12:42:00,
2017-04-27 08:47:00,62.2,61.0,28.61,NW,315,5.0,-999.0,96,0.00,,,0.11,,2017-04-27 12:47:00,
2017-04-27 08:53:00,62.2,61.0,28.61,SSE,158,4.0,-999.0,96,0.00,,,0.11,,2017-04-27 12:53:00,
2017-04-27 08:58:00,62.2,61.0,28.61,NW,315,3.0,-999.0,96,0.00,,,0.11,,2017-04-27 12:58:00,
2017-04-27 09:04:00,62.2,61.0,28.61,SW,225,3.0,-999.0,96,0.00,,,0.11,,2017-04-27 13:04:00,
2017-04-27 09:09:00,62.2,61.0,28.61,SW,225,4.0,-999.0,96,0.00,,,0.11,,2017-04-27 13:09:00,
2017-04-27 09:14:00,62.2,61.0,28.62,SSW,203,7.0,-999.0,96,0.00,,,0.11,,2017-04-27 13:14:00,
2017-04-27 09:20:00,62.2,61.0,28.62,East,90,2.0,-999.0,96,0.00,,,0.11,,2017-04-27 13:20:00,
2017-04-27 09:25:00,62.2,60.0,28.62,SW,225,7.0,-999.0,95,0.00,,,0.11,,2017-04-27 13:25:00,
2017-04-27 09:40:00,-999.9,-99.9,28.61,WSW,248,9.0,-999.0,-999,0.00,,,0.11,,2017-04-27 13:40:00,
2017-04-27 09:46:00,63.0,60.0,28.61,WSW,248,4.0,-999.0,91,0.00,,,0.11,,2017-04-27 13:46:00,
2017-04-27 09:51:00,63.0,60.0,28.61,West,270,4.0,-999.0,91,0.00,,,0.11,,2017-04-27 13:51:00,
2017-04-27 09:56:00,63.0,60.0,28.61,West,270,11.0,-999.0,91,0.00,,,0.11,,2017-04-27 13:56:00,
2017-04-27 10:02:00,63.2,60.0,28.62,SE,135,4.0,-999.0,90,0.00,,,0.11,,2017-04-27 14:02:00,
2017-04-27 10:07:00,63.6,60.0,28.62,West,270,9.0,-999.0,88,0.00,,,0.11,,2017-04-27 14:07:00,
2017-04-27 10:13:00,64.6,59.0,28.63,ESE,113,5.0,-999.0,85,0.00,,,0.11,,2017-04-27 14:13:00,
2017-04-27 10:18:00,64.9,59.0,28.62,West,270,8.0,-999.0,81,0.00,,,0.11,,2017-04-27 14:18:00,